Location: Campillo
(40.8621°N, 4.2488°W)
Time: 11:59:25
(UTC+00:00)

SJ-6B - Pass Details

Date: 11 May 2021
Orbit: 510 x 580 km, 97.6° (Epoch: 13 June)

Event Time Altitude Azimuth Distance (km) Brightness Sun altitude
Exits shadow 20:30:38 - 183° (S) 2,455 5.8 -11.6°
Reaches altitude 10° 20:32:17 10° 188° (S) 1,786 5.1 -11.9°
Maximum altitude 20:35:59 44° 261° (W) 767 3.9 -12.5°
Drops below altitude 10° 20:39:47 10° 334° (NNW) 1,841 6.6 -13.0°
Sets 20:42:02 0° 341° (NNW) 2,753 7.4 -13.4°
